Weather reports worldwide

Advertisment
Konstanz, Germany (10929): temperature & dewpoint: 25.09.2020 00:00:00 - 01.10.2020 00:00:00 (CEST)Konstanz, Germany (10929): temperature 5cm & temperature -5cm: 25.09.2020 00:00:00 - 01.10.2020 00:00:00 (CEST)Konstanz, Germany (10929): temperature -20cm & temperature -100cm: 25.09.2020 00:00:00 - 01.10.2020 00:00:00 (CEST)Konstanz, Germany (10929): wind speed & gusts: 25.09.2020 00:00:00 - 01.10.2020 00:00:00 (CEST)Konstanz, Germany (10929): wind direction: 25.09.2020 00:00:00 - 01.10.2020 00:00:00 (CEST)Konstanz, Germany (10929): reduced air pressure: 25.09.2020 00:00:00 - 01.10.2020 00:00:00 (CEST)Konstanz, Germany (10929): visibility: 25.09.2020 00:00:00 - 01.10.2020 00:00:00 (CEST)Konstanz, Germany (10929): sunshine duration: 25.09.2020 00:00:00 - 01.10.2020 00:00:00 (CEST)Konstanz, Germany (10929): precipitation: 25.09.2020 00:00:00 - 01.10.2020 00:00:00 (CEST)
Date & Time tt [°C] td [°C] tt 5cm [°C] tt -5cm [°C] tt -20cm [°C] tt -100cm [°C] ff [km/h] ff [kn] fx [km/h] fx [kn] dd ppp [hPa] vv [km] sd [min] rr [mm]
01.10.2020 00:00:00 12,0 11,2 10,5 13,6 15,9 16,9 6 3 9 5 NW 1012,3 32 0 0,0
30.09.2020 23:00:00 11,8 10,9 9,6 14,2 16,2 16,9 6 3 8 4 W 1012,5 29 0 0,0
30.09.2020 22:00:00 12,6 10,9 10,4 14,9 16,5 16,9 6 3 8 4 WNW 1012,7 58 0 0,0
30.09.2020 21:00:00 13,2 10,8 11,3 15,7 16,8 16,9 4 2 5 3 NNE 1012,4 70 0 0,0
30.09.2020 20:00:00 14,5 11,0 12,0 16,8 17,1 16,9 5 3 7 4 WNW 1012,2 67 0 0,0
30.09.2020 19:00:00 16,7 10,8 14,7 18,1 17,2 16,9 4 2 8 4 NW 1011,8 60 51 0,0
30.09.2020 18:00:00 18,7 10,4 17,0 19,9 17,0 16,9 3 2 8 5 S 1011,7 70 60 0,0
30.09.2020 17:00:00 19,3 10,1 20,8 21,3 16,5 16,9 5 3 9 5 SSW 1012,1 54 60 0,0
30.09.2020 16:00:00 19,3 10,3 22,0 21,2 15,9 17,0 5 3 13 7 S 1012,8 54 60 0,0
30.09.2020 15:00:00 18,7 10,5 21,8 20,5 15,2 17,0 6 4 13 7 SSE 1013,5 44 60 0,0
30.09.2020 14:00:00 17,4 10,4 19,8 19,1 14,5 17,0 6 4 14 8 S 1014,5 46 60 0,0
30.09.2020 13:00:00 16,0 10,4 18,6 17,7 13,8 17,0 5 3 11 6 ESE 1015,6 60 49 0,0
30.09.2020 12:00:00 14,0 9,6 16,1 15,3 13,4 17,0 7 4 15 8 W 1016,4 24 51 0,0
30.09.2020 11:00:00 12,5 9,5 12,9 13,3 13,2 17,0 3 2 9 5 NNE 1017,4 18 21 0,0
30.09.2020 10:00:00 11,3 10,1 11,2 12,2 13,1 17,0 5 3 7 4 NNE 1018,0 8 0 0,0
30.09.2020 09:00:00 10,7 10,0 10,7 11,5 13,1 17,0 3 2 8 4 NW 1018,1 6 7 0,0
30.09.2020 08:00:00 10,1 9,7 10,1 11,0 13,2 17,0 5 3 8 4 NNW 1018,4 2,5 0 0,0
30.09.2020 07:00:00 8,9 8,5 8,4 10,8 13,4 17,0 6 4 9 5 W 1018,6 8 0 0,0
30.09.2020 06:00:00 9,5 9,1 8,1 11,2 13,5 17,1 6 4 9 5 N 1018,5 9 0 0,0
30.09.2020 05:00:00 9,5 8,9 7,7 11,6 13,7 17,1 4 2 7 4 NW 1019,0 19 0 0,0
30.09.2020 04:00:00 10,3 9,6 9,2 12,1 13,8 17,1 4 2 6 3 NW 1019,0 23 0 0,0
30.09.2020 03:00:00 11,2 10,2 10,5 12,4 13,8 17,1 5 3 6 4 N 1019,3 28 0 0,0
30.09.2020 02:00:00 11,3 10,1 10,9 12,5 13,9 17,1 4 2 5 3 W 1019,4 33 0 0,0
30.09.2020 01:00:00 11,5 10,3 11,2 12,6 13,9 17,1 3 2 5 3 NNW 1019,8 33 0 0,0
30.09.2020 00:00:00 11,6 10,2 11,1 12,7 14,0 17,1 5 3 6 3 N 1020,0 40 0 0,0
29.09.2020 23:00:00 11,8 10,1 11,4 12,8 14,0 17,1 3 1 4 2 W 1020,3 35 0 0,0
29.09.2020 22:00:00 11,9 10,2 11,5 12,9 14,1 17,1 3 2 5 3 SW 1020,4 45 0 0,0
29.09.2020 21:00:00 12,1 10,0 11,5 13,0 14,1 17,2 3 2 5 3 SSE 1020,2 52 0 0,0
29.09.2020 20:00:00 12,1 9,7 11,4 13,2 14,2 17,2 3 2 9 5 SSE 1020,3 41 0 0,0
29.09.2020 19:00:00 12,5 9,1 12,3 13,4 14,2 17,2 6 3 13 7 SSW 1020,2 70 0 0,0
29.09.2020 18:00:00 12,6 8,7 12,6 13,5 14,1 17,2 10 6 20 11 WSW 1020,1 70 0 0,0
29.09.2020 17:00:00 12,6 7,9 12,7 13,7 14,1 17,2 10 5 20 11 WSW 1019,9 70 0 0,0
29.09.2020 16:00:00 12,7 7,4 13,0 13,9 13,9 17,2 11 6 26 14 WSW 1020,0 70 0 0,0
29.09.2020 15:00:00 12,5 7,9 13,1 13,5 13,8 17,2 14 8 26 14 WSW 1020,1 70 0 0,0
29.09.2020 14:00:00 12,4 7,3 13,0 13,2 13,7 17,2 17 9 32 17 WSW 1020,0 70 0 0,0
29.09.2020 13:00:00 11,5 7,9 11,2 12,6 13,7 17,2 15 8 32 17 WSW 1020,1 57 0 0,0
29.09.2020 12:00:00 11,4 7,7 11,7 12,4 13,6 17,2 18 10 39 21 WSW 1019,9 70 0 0,0
29.09.2020 11:00:00 11,0 8,0 11,3 12,1 13,7 17,3 23 12 41 22 WSW 1019,6 70 0 0,0
29.09.2020 10:00:00 11,1 7,6 11,1 12,0 13,7 17,3 23 12 44 24 W 1019,1 70 0 0,0
29.09.2020 09:00:00 10,9 7,9 10,8 12,0 13,8 17,3 20 11 37 20 W 1018,4 70 0 0,0
29.09.2020 08:00:00 10,8 8,7 10,4 12,1 13,9 17,3 17 9 29 16 W 1017,8 70 0 0,0
29.09.2020 07:00:00 10,6 9,2 10,2 12,2 14,0 17,3 18 10 33 18 W 1017,1 61 0 0,0
29.09.2020 06:00:00 10,5 9,5 10,2 12,3 14,1 17,3 16 9 31 17 WSW 1016,6 62 0 0,0
29.09.2020 05:00:00 10,2 9,6 10,2 12,4 14,2 17,3 8 5 19 11 WSW 1016,4 18 0 1,3
29.09.2020 04:00:00 10,1 9,2 9,9 12,6 14,4 17,4 7 4 19 11 SW 1016,4 7 0 0,1
29.09.2020 03:00:00 10,2 9,3 10,0 12,7 14,5 17,4 5 3 13 7 SSW 1016,4 18 0 0,1
29.09.2020 02:00:00 10,2 9,2 10,0 12,8 14,6 17,4 4 2 17 9 SW 1016,3 11 0 0,9
29.09.2020 01:00:00 10,9 8,9 10,3 13,0 14,8 17,4 10 6 21 12 SW 1016,5 11 0 0,0
29.09.2020 00:00:00 11,8 7,5 11,5 13,2 15,0 17,4 13 7 27 14 WSW 1016,2 70 0 0,0
28.09.2020 23:00:00 12,0 7,4 11,4 13,6 15,2 17,4 9 5 22 12 WSW 1015,7 70 0 0,0
28.09.2020 22:00:00 12,1 7,4 11,7 14,0 15,5 17,5 10 6 17 9 WSW 1015,1 70 0 0,0
28.09.2020 21:00:00 12,3 7,1 11,3 14,6 15,7 17,5 8 4 16 9 WSW 1014,5 70 0 0,0
28.09.2020 20:00:00 12,8 7,1 12,4 15,3 15,9 17,5 5 3 14 7 SW 1013,7 70 0 0,0
28.09.2020 19:00:00 12,7 7,0 11,6 16,3 16,0 17,5 6 4 10 5 S 1012,9 70 0 0,0
28.09.2020 18:00:00 13,9 6,3 13,5 17,8 15,8 17,6 5 3 11 6 SE 1012,2 48 8 0,0
28.09.2020 17:00:00 15,7 6,5 19,7 19,0 15,5 17,6 7 4 16 9 ESE 1011,2 58 49 0,0
28.09.2020 16:00:00 15,3 7,1 18,3 19,7 14,9 17,6 8 4 16 9 SSE 1011,2 70 52 0,0
28.09.2020 15:00:00 14,9 5,8 18,6 19,6 14,1 17,6 6 3 14 8 S 1011,3 70 55 0,0
28.09.2020 14:00:00 14,9 5,1 19,5 18,3 13,3 17,7 9 5 16 8 SSW 1011,5 46 60 0,0
28.09.2020 13:00:00 14,0 5,4 17,5 15,9 12,7 17,7 6 3 16 8 SSW 1011,6 56 56 0,0
28.09.2020 12:00:00 12,4 5,0 14,2 14,1 12,1 17,7 8 4 15 8 W 1011,7 70 60 0,0
28.09.2020 11:00:00 11,4 5,2 12,3 12,2 11,8 17,7 8 5 18 10 WNW 1011,6 62 60 0,0
28.09.2020 10:00:00 10,4 5,3 12,5 10,0 11,8 17,8 7 4 13 7 WNW 1011,6 70 60 0,0
28.09.2020 09:00:00 7,8 5,0 6,9 9,2 11,9 17,8 4 2 10 6 W 1011,8 70 60 0,0
28.09.2020 08:00:00 6,4 4,9 6,0 9,0 12,1 17,8 3 2 10 5 WSW 1011,2 70 4 0,0
28.09.2020 07:00:00 6,5 4,7 5,0 9,5 12,2 17,8 4 2 17 9 N 1010,7 70 0 0,0
28.09.2020 06:00:00 7,9 5,7 7,7 9,9 12,3 17,9 4 2 9 5 N 1010,4 70 0 0,0
28.09.2020 05:00:00 8,0 5,5 7,7 9,9 12,3 17,9 5 3 9 5 WNW 1010,4 70 0 0,0
28.09.2020 04:00:00 8,1 5,5 7,9 10,0 12,4 17,9 6 3 8 4 W 1010,4 58 0 0,0
28.09.2020 03:00:00 8,1 5,4 7,8 10,0 12,5 17,9 4 2 6 4 NNW 1010,1 70 0 0,0
28.09.2020 02:00:00 8,1 5,2 7,6 10,1 12,7 18,0 5 3 8 4 W 1009,7 70 0 0,0
28.09.2020 01:00:00 8,3 5,6 8,1 10,1 12,8 18,0 3 2 6 4 NNE 1009,8 70 0 0,0
28.09.2020 00:00:00 7,4 4,6 6,4 10,3 13,0 18,0 3 1 6 3 SW 1009,9 70 0 0,0
27.09.2020 23:00:00 8,8 5,2 8,2 10,6 13,2 18,1 3 2 6 4 S 1009,7 70 0 0,0
27.09.2020 22:00:00 8,7 4,4 7,9 10,6 13,4 18,1 5 3 6 4 WSW 1009,2 70 0 0,0
27.09.2020 21:00:00 8,1 4,5 6,2 11,1 13,7 18,1 4 2 10 5 NW 1008,8 49 0 0,0
27.09.2020 20:00:00 9,5 4,5 7,7 11,8 13,9 18,2 6 3 23 12 W 1007,7 70 2 0,0
27.09.2020 19:00:00 10,8 4,1 9,8 12,8 14,1 18,2 15 8 26 14 W 1006,6 70 47 0,0
27.09.2020 18:00:00 11,5 4,4 11,2 14,1 14,0 18,2 14 8 26 14 W 1005,9 70 37 0,0
27.09.2020 17:00:00 12,0 4,1 12,0 15,3 13,6 18,3 10 5 26 14 WNW 1005,8 70 45 0,0
27.09.2020 16:00:00 13,1 4,2 16,0 15,8 13,1 18,3 13 7 32 17 WNW 1005,3 40 60 0,0
27.09.2020 15:00:00 12,5 3,0 15,3 14,2 12,7 18,3 18 10 31 17 W 1005,0 49 46 0,0
27.09.2020 14:00:00 11,6 4,0 12,7 12,8 12,3 18,4 14 7 28 15 WSW 1005,3 70 0 0,0
27.09.2020 13:00:00 11,9 3,7 13,3 12,7 11,9 18,4 8 4 21 11 WSW 1004,7 70 1 0,0
27.09.2020 12:00:00 12,0 3,8 14,3 11,8 11,6 18,4 10 6 20 11 S 1004,1 70 54 0,0
27.09.2020 11:00:00 10,1 3,4 11,0 10,0 11,4 18,5 10 6 18 10 SW 1004,2 70 17 0,0
27.09.2020 10:00:00 9,1 3,6 9,6 9,0 11,4 18,5 9 5 17 9 SW 1003,8 70 9 0,0
27.09.2020 09:00:00 7,9 3,3 7,1 8,6 11,5 18,5 7 4 22 12 WSW 1003,7 70 0 0,0
27.09.2020 08:00:00 7,6 3,3 6,7 8,7 11,5 18,6 9 5 16 9 WSW 1003,7 70 2 0,0
27.09.2020 07:00:00 7,6 3,7 7,0 8,8 11,6 18,6 9 5 14 8 WSW 1003,7 70 0 0,0
27.09.2020 06:00:00 7,4 4,2 6,8 8,7 11,6 18,6 8 4 29 16 W 1004,1 70 0 0,0
27.09.2020 05:00:00 7,7 3,7 7,4 8,7 11,7 18,6 16 9 28 15 WSW 1004,0 44 0 0,0
27.09.2020 04:00:00 7,6 3,6 7,3 8,6 11,8 18,7 18 10 35 19 SW 1004,1 70 0 0,0
27.09.2020 03:00:00 7,3 3,6 7,0 8,6 11,9 18,7 18 10 36 20 WSW 1004,6 70 0 0,0
27.09.2020 02:00:00 7,2 3,7 6,9 8,8 12,0 18,7 22 12 40 22 WSW 1004,8 70 0 0,0
27.09.2020 01:00:00 7,3 3,8 7,2 8,9 12,1 18,8 21 11 37 20 WSW 1005,1 70 0 0,0
27.09.2020 00:00:00 7,2 3,7 7,1 8,9 12,2 18,8 22 12 44 24 WSW 1004,7 70 0 0,0
26.09.2020 23:00:00 7,1 4,0 6,9 9,0 12,4 18,8 21 11 42 23 WSW 1004,6 70 0 0,0
26.09.2020 22:00:00 6,8 4,1 6,7 9,1 12,5 18,9 18 10 38 20 WSW 1005,0 70 0 0,0
26.09.2020 21:00:00 6,4 4,5 5,8 9,3 12,7 18,9 19 10 40 22 WSW 1005,3 70 0 0,2
26.09.2020 20:00:00 6,7 4,0 6,1 9,7 12,8 18,9 23 12 41 22 WSW 1005,3 23 0 0,0
26.09.2020 19:00:00 7,5 4,0 7,4 10,1 12,9 19,0 20 11 48 26 WSW 1005,0 70 0 0,0
26.09.2020 18:00:00 7,9 4,4 8,0 10,4 13,0 19,0 22 12 43 23 WSW 1004,4 70 0 0,1
26.09.2020 17:00:00 8,5 4,0 8,0 10,5 13,0 19,0 22 12 45 25 WSW 1003,9 41 0 0,0
26.09.2020 16:00:00 8,9 2,7 9,1 10,6 13,0 19,0 21 11 53 29 W 1003,8 70 0 0,0
26.09.2020 15:00:00 8,9 3,1 9,1 10,7 12,9 19,1 21 11 53 29 W 1004,0 67 0 0,0
26.09.2020 14:00:00 8,3 3,6 8,0 10,6 12,9 19,1 29 16 63 34 W 1004,1 39 0 0,0
26.09.2020 13:00:00 8,1 3,9 8,0 10,4 12,9 19,1 31 17 63 34 WSW 1004,2 46 0 0,0
26.09.2020 12:00:00 8,0 4,0 8,6 10,2 12,8 19,1 28 15 58 31 WSW 1004,1 40 0 0,0
26.09.2020 11:00:00 8,1 2,7 8,6 9,9 12,9 19,2 32 17 57 31 WSW 1004,1 57 0 0,0
26.09.2020 10:00:00 7,8 3,0 8,0 9,6 12,9 19,2 31 17 62 33 WSW 1004,0 70 0 0,0
26.09.2020 09:00:00 7,5 3,4 7,5 9,5 13,1 19,2 25 13 50 27 WSW 1004,1 70 0 0,0
26.09.2020 08:00:00 7,3 4,1 6,9 9,6 13,2 19,2 24 13 44 24 WSW 1004,5 67 0 0,0
26.09.2020 07:00:00 7,7 4,4 7,4 9,7 13,3 19,3 22 12 46 25 W 1004,5 70 0 0,0
26.09.2020 06:00:00 7,8 5,0 6,9 9,9 13,5 19,3 22 12 41 22 W 1004,3 70 0 0,0
26.09.2020 05:00:00 8,0 4,9 7,6 10,0 13,6 19,3 21 12 41 22 WSW 1004,1 70 0 0,0
26.09.2020 04:00:00 7,9 5,1 7,6 10,2 13,8 19,3 22 12 35 19 W 1004,0 70 0 0,0
26.09.2020 03:00:00 7,7 5,6 7,1 10,3 14,0 19,3 17 9 34 18 W 1004,6 70 0 0,0
26.09.2020 02:00:00 7,7 5,5 7,2 10,4 14,1 19,4 19 11 33 18 WSW 1004,6 70 0 0,0
26.09.2020 01:00:00 7,3 5,8 6,8 10,5 14,3 19,4 17 9 35 19 WSW 1004,6 70 0 1,1
26.09.2020 00:00:00 7,9 4,9 7,7 10,7 14,6 19,4 19 10 37 20 W 1004,5 70 0 0,0
25.09.2020 23:00:00 7,8 5,0 7,4 11,0 14,8 19,4 21 11 36 20 W 1004,0 70 0 0,0
25.09.2020 22:00:00 8,2 5,4 7,7 11,4 15,0 19,4 16 9 32 17 W 1003,6 70 0 0,0
25.09.2020 21:00:00 8,4 6,0 8,1 11,8 15,2 19,4 13 7 27 14 W 1003,5 70 0 0,0
25.09.2020 20:00:00 8,5 6,2 8,3 12,2 15,3 19,4 11 6 24 13 W 1003,1 36 0 0,0
25.09.2020 19:00:00 8,7 6,1 8,4 12,7 15,4 19,5 9 5 18 10 SW 1002,6 70 0 0,1
25.09.2020 18:00:00 8,7 5,3 8,9 12,8 15,5 19,5 9 5 16 8 SSW 1003,0 70 0 0,0
25.09.2020 17:00:00 8,6 5,9 8,9 12,8 15,6 19,5 11 6 26 14 SSW 1003,2 70 0 0,0
25.09.2020 16:00:00 8,6 6,8 8,6 12,6 15,8 19,5 10 5 29 16 SSW 1003,2 70 0 0,7
25.09.2020 15:00:00 8,9 6,6 8,4 12,9 15,9 19,5 16 9 23 13 SSW 1003,4 20 0 0,8
25.09.2020 14:00:00 9,5 6,7 9,3 13,1 16,1 19,5 10 5 19 11 S 1003,5 70 0 0,0
25.09.2020 13:00:00 9,6 6,4 9,6 13,2 16,2 19,5 11 6 25 14 SW 1003,3 70 0 0,0
25.09.2020 12:00:00 9,9 6,4 10,1 13,4 16,3 19,5 12 6 23 13 SW 1004,3 70 0 0,0
25.09.2020 11:00:00 9,7 6,6 9,7 13,3 16,5 19,5 13 7 23 13 SW 1004,5 70 0 0,0
25.09.2020 10:00:00 9,3 6,8 9,4 13,3 16,8 19,6 13 7 32 18 SW 1004,4 70 0 0,1
25.09.2020 09:00:00 9,1 6,4 8,4 13,4 17,1 19,6 15 8 41 22 SW 1004,5 39 0 0,4
25.09.2020 08:00:00 10,1 6,9 9,1 13,9 17,3 19,6 24 13 44 24 WSW 1003,9 46 0 0,0
25.09.2020 07:00:00 11,5 8,6 11,3 14,5 17,6 19,6 19 10 35 19 W 1002,1 70 0 0,0
25.09.2020 06:00:00 12,0 8,9 11,5 15,0 17,8 19,6 16 9 36 19 W 1001,8 70 0 0,1
25.09.2020 05:00:00 12,9 11,9 12,3 15,4 18,0 19,6 5 3 10 6 SSE 1001,3 70 0 0,0
25.09.2020 04:00:00 12,9 12,1 12,5 15,7 18,2 19,6 4 2 10 6 SE 1002,0 70 0 0,0
25.09.2020 03:00:00 12,8 11,7 12,3 15,9 18,4 19,6 6 4 14 8 S 1002,9 70 0 0,0
25.09.2020 02:00:00 13,2 12,1 12,9 16,1 18,6 19,6 8 4 17 9 S 1003,8 70 0 0,1
25.09.2020 01:00:00 13,2 12,4 13,0 16,4 18,9 19,6 11 6 16 8 S 1004,5 41 0 1,2
25.09.2020 00:00:00 13,6 11,9 12,9 16,8 19,2 19,7 9 5 23 12 WSW 1004,7 31 0 0,9

tt = temperature
td = dewpoint
tt 5cm = temperature 5cm
tt -5cm = temperature -5cm
tt -20cm = temperature -20cm
tt -100cm = temperature -100cm
ff = wind speed
fx = gusts
dd = wind direction
ppp = reduced air pressure
vv = visibility
sd = sunshine duration
rr = precipitation

Next stations